DW7754 Weather Reports


time (UTC)temp
C
wind
direction
speed
KPH
gust
KPH
rain 1hr
cm
rain 24hr
cm
rain mn
cm
humidity
%
barometer
mb
20260509053102 12 236 0.0 9.7 0.00 1.02 0.00 98 1007.9
20260509051544 12 250 0.0 11.3 0.00 1.02 0.00 98 1007.9
20260509050036 12 238 0.0 9.7 0.00 1.02 0.00 98 1007.8
20260509043039 12 219 3.2 16.1 0.03 1.02 0.00 97 1007.8
20260509041534 12 180 6.4 17.7 0.03 1.02 0.00 97 1007.8
20260509040035 12 192 4.8 14.5 0.03 1.02 0.00 97 1007.8
20260509034538 12 187 0.0 9.7 0.05 1.02 1.02 97 1007.9
20260509033031 12 187 0.0 4.8 0.05 0.99 0.99 97 1008.0
20260509031548 12 204 0.0 1.6 0.10 0.99 0.99 97 1008.0
20260509030054 12 233 0.0 9.7 0.15 0.99 0.99 97 1008.3
20260509024537 12 236 0.0 14.5 0.15 0.97 0.97 97 1008.3
20260509023034 12 228 1.6 19.3 0.10 0.91 0.91 97 1008.4
20260509021536 12 236 1.6 22.5 0.10 0.89 0.89 97 1008.4
20260509020028 12 219 1.6 11.3 0.10 0.84 0.84 97 1008.2
20260509014528 12 246 1.6 14.5 0.08 0.81 0.81 97 1008.1
20260509013027 12 230 1.6 12.9 0.10 0.81 0.81 97 1008.2
20260509011527 12 234 0.0 9.7 0.10 0.79 0.79 97 1008.2
20260509004529 12 231 0.0 4.8 0.15 0.71 0.71 97 1008.1
20260509003025 12 232 0.0 6.4 0.15 0.71 0.71 96 1008.2
20260509001524 12 229 0.0 4.8 0.20 0.66 0.66 96 1008.4
20260509000023 12 231 0.0 6.4 0.20 0.61 0.61 96 1008.5
20260508234523 12 204 0.0 0.0 0.23 0.58 0.58 95 1008.4
20260508233023 12 181 0.0 1.6 0.30 0.56 0.56 95 1008.3
20260508231521 12 227 0.0 0.0 0.25 0.46 0.46 94 1008.8
20260508230021 12 199 0.0 0.0 0.25 0.41 0.41 94 1008.5
20260508224520 12 296 0.0 0.0 0.25 0.36 0.36 93 1008.6
20260508223038 13 302 0.0 0.0 0.20 0.25 0.25 93 1008.9
20260508221518 13 302 0.0 0.0 0.20 0.20 0.20 92 1008.8
20260508220017 13 307 0.0 0.0 0.15 0.15 0.15 90 1008.8
20260508214516 13 307 1.6 11.3 0.10 0.10 0.10 88 1008.7
20260508213021 15 351 3.2 20.9 0.03 0.03 0.03 79 1008.5
20260508211511 16 292 0.0 6.4 0.00 0.00 0.00 68 1008.2
20260508210015 17 238 0.0 0.0 0.00 0.00 0.00 66 1008.0
20260508204510 17 238 0.0 1.6 0.00 0.00 0.00 64 1008.0
20260508203007 17 238 0.0 8.0 0.00 0.00 0.00 62 1008.2
20260508201507 17 225 0.0 8.0 0.00 0.00 0.00 61 1008.5
20260508200009 17 232 0.0 4.8 0.00 0.00 0.00 62 1008.7
20260508194502 17 239 0.0 4.8 0.00 0.00 0.00 62 1008.9
20260508193105 17 240 0.0 4.8 0.00 0.00 0.00 59 1009.2
20260508191559 17 238 0.0 11.3 0.00 0.00 0.00 58 1009.4
20260508190058 17 244 1.6 16.1 0.00 0.00 0.00 56 1009.7
20260508184557 17 217 3.2 20.9 0.00 0.00 0.00 56 1009.8
20260508183056 17 248 1.6 19.3 0.00 0.00 0.00 58 1009.7
20260508181557 17 230 4.8 16.1 0.00 0.00 0.00 57 1010.0
20260508180054 17 223 0.0 11.3 0.00 0.00 0.00 58 1010.1
20260508174558 17 225 1.6 16.1 0.00 0.00 0.00 55 1010.0
20260508173052 17 229 4.8 25.7 0.00 0.00 0.00 52 1010.2
20260508171550 18 205 1.6 11.3 0.00 0.00 0.00 56 1010.3
20260508170048 18 218 1.6 19.3 0.00 0.00 0.00 58 1010.7
20260508164546 17 249 6.4 29.0 0.00 0.00 0.00 55 1011.0
20260508163040 17 244 4.8 20.9 0.00 0.00 0.00 56 1011.3
20260508161539 17 217 3.2 20.9 0.00 0.00 0.00 57 1011.4
20260508160039 17 233 1.6 16.1 0.00 0.00 0.00 57 1011.6
20260508154539 16 225 0.0 8.0 0.00 0.00 0.00 60 1011.7
20260508153040 16 229 0.0 12.9 0.00 0.00 0.00 57 1011.8
20260508151534 16 250 1.6 14.5 0.00 0.00 0.00 57 1011.7
20260508150050 16 234 1.6 17.7 0.00 0.00 0.00 57 1011.9
20260508144529 16 239 1.6 16.1 0.00 0.00 0.00 59 1011.9
20260508143025 15 234 1.6 14.5 0.00 0.00 0.00 59 1012.1
20260508141529 15 249 1.6 22.5 0.00 0.00 0.00 60 1012.2
20260508140026 15 236 0.0 19.3 0.00 0.00 0.00 59 1012.5
20260508134517 14 231 1.6 12.9 0.00 0.00 0.00 59 1012.6
20260508133013 13 228 1.6 9.7 0.00 0.00 0.00 60 1012.7
20260508131509 13 254 0.0 14.5 0.00 0.00 0.00 62 1012.9
20260508130005 12 230 0.0 6.4 0.00 0.00 0.00 62 1012.7
20260508124600 12 240 0.0 4.8 0.00 0.00 0.00 65 1012.7
20260508123056 11 229 0.0 4.8 0.00 0.00 0.00 67 1012.7
20260508121552 10 240 0.0 1.6 0.00 0.00 0.00 68 1012.9
20260508120048 10 241 0.0 0.0 0.00 0.00 0.00 71 1012.7
20260508114544 9 306 0.0 0.0 0.00 0.00 0.00 72 1012.7
20260508113040 9 306 0.0 0.0 0.00 0.00 0.00 70 1012.6
20260508111540 9 306 0.0 0.0 0.00 0.00 0.00 70 1012.7
20260508110037 9 244 0.0 6.4 0.00 0.00 0.00 69 1012.2
20260508104537 9 238 0.0 4.8 0.00 0.00 0.00 69 1012.2
20260508103035 9 221 0.0 11.3 0.00 0.00 0.00 69 1012.2
20260508101633 9 246 0.0 1.6 0.00 0.00 0.00 69 1012.1
20260508100035 10 237 0.0 4.8 0.00 0.00 0.00 67 1012.1
20260508094531 10 238 0.0 3.2 0.00 0.00 0.00 67 1012.2
20260508093035 10 235 0.0 4.8 0.00 0.00 0.00 66 1012.3
20260508091533 10 229 0.0 1.6 0.00 0.00 0.00 66 1012.3
20260508090035 11 228 0.0 4.8 0.00 0.00 0.00 66 1012.3
20260508084528 11 232 0.0 8.0 0.00 0.00 0.00 66 1012.6
20260508083028 11 263 0.0 0.0 0.00 0.00 0.00 65 1012.7
20260508081528 11 294 0.0 1.6 0.00 0.00 0.00 65 1012.9
20260508080049 11 249 0.0 6.4 0.00 0.00 0.00 63 1012.9
20260508074527 11 237 0.0 9.7 0.00 0.00 0.00 62 1012.8
20260508073030 11 243 0.0 6.4 0.00 0.00 0.00 62 1012.7
20260508071524 11 234 0.0 8.0 0.00 0.00 0.00 62 1012.5
20260508070024 11 238 0.0 6.4 0.00 0.00 0.00 63 1012.7
20260508064537 11 246 0.0 9.7 0.00 0.00 0.00 63 1013.0
20260508063121 11 232 0.0 9.7 0.00 0.00 0.00 63 1013.0
20260508061520 11 242 1.6 12.9 0.00 0.00 0.00 63 1012.9
20260508060017 11 239 0.0 6.4 0.00 0.00 0.00 65 1012.9
20260508054531 10 235 0.0 6.4 0.00 0.00 0.00 65 1013.1